Tracking 28915 objects as of 30-May-2024
HD Live streaming from Space Station
objects crossing your sky now

OBJECT B

Track OBJECT B now!
10-day predictions
OBJECT B is classified as:


NORAD ID: 59052
Int'l Code: 2024-039B
Perigee: 481.4 km
Apogee: 502.1 km
Inclination: 97.4 °
Period: 94.3 minutes
Semi major axis: 6862 km
RCS: Unknown
Launch date: February 29, 2024
Source: (TBD)
Launch site: VOSTOCHNY COSMODROME (VOSTO)

Uplink (MHz):
Downlink (MHz): 401.360
Beacon (MHz):
Mode: 2k4 GMSK_USP
Call sign:
Status: Unknown


Note: This is a ROCKET BODY
Your satellite tracking list
Your tracking list is empty




NASA's NSSDC Master Catalog

Two Line Element Set (TLE):
1 59052U 24039B   24151.20990777  .00017598  00000-0  66262-3 0  9998
2 59052  97.3910 113.3702 0015121 280.5863  79.3672 15.27059441 13850
Source of the keplerian elements: AFSPC